Plattsburgh, NY

2:52 PM EDT on April 27, 2017 (GMT -0400)
Plattsburgh International

Weather History for KPBG - February, 2013

Change the Weather History Date:

Monday, February 25, 2013

  Actual Average Record
Temperature  
Mean Temperature 32 °F 24 °F  
Max Temperature 34 °F 34 °F 65 °F (2017)
Min Temperature 30 °F 15 °F -9 °F (1993)
Degree Days  
Heating Degree Days 33 41  
Month to date heating degree days 993 1115  
Since 1 July heating degree days 5063 5491  
Cooling Degree Days 0 0  
Month to date cooling degree days 0  
Year to date cooling degree days 0  
Moisture  
Dew Point 30 °F    
Average Humidity 95    
Maximum Humidity 100    
Minimum Humidity 89    
Precipitation  
Precipitation T in - 1.01 in (2017)
Month to date precipitation 0.49  
Year to date precipitation 1.24  
Sea Level Pressure  
Sea Level Pressure 30.13 in    
Wind  
Wind Speed 0 mph (ESE)    
Max Wind Speed 6 mph    
Max Gust Speed 7 mph    
Visibility 3 miles    
Events Fog , Snow    
T = Trace of Precipitation, MM = Missing Value Source: NWS Daily Summary

Daily Weather History Graph

Daily Weather History Graph

Search for Another Location

Airport or City:

Trip Planner

Search our weather history database for the weather conditions in past years. The results will help you decide how hot, cold, wet, or windy it might be!

Date:

Astronomy

Feb. 25, 2013 Rise Set
Actual Time 6:37 AM EST 5:36 PM EST
Civil Twilight 6:08 AM EST 6:06 PM EST
Nautical Twilight 5:34 AM EST 6:39 PM EST
Astronomical Twilight 5:00 AM EST 7:13 PM EST
Moon 5:49 PM EST (2/25) 6:05 AM EST (2/25)
Length of Visible Light 11h 57m
Length of Day
10h 58m
Full, 100% of the Moon is Illuminated
Feb 25
Full
Feb 25
Full
Mar 4
Last Quarter
Mar 11
New
Mar 19
First Quarter

Hourly Weather History & Observations

Time (EST) Temp. Windchill Dew Point Humidity Pressure Visibility Wind Dir Wind Speed Gust Speed Precip Events Conditions
12:04 AM 30.2 °F - 30.2 °F 100% 29.96 in 0.5 mi Calm Calm - N/A Fog Light Freezing Fog
12:10 AM 30.2 °F - 30.2 °F 100% 29.96 in 1.0 mi Calm Calm - N/A   Overcast
12:37 AM 30.2 °F - 30.2 °F 100% 29.97 in 2.5 mi Calm Calm - N/A   Overcast
12:53 AM 30.9 °F - 30.0 °F 96% 29.99 in 2.5 mi Calm Calm - N/A   Overcast
1:05 AM 30.2 °F - 30.2 °F 100% 29.97 in 3.0 mi Calm Calm - N/A   Overcast
1:13 AM 30.2 °F - 30.2 °F 100% 29.98 in 2.5 mi Calm Calm - N/A   Overcast
1:20 AM 30.2 °F - 30.2 °F 100% 29.98 in 3.0 mi Calm Calm - N/A   Overcast
1:33 AM 30.2 °F - 30.2 °F 100% 29.98 in 2.5 mi Calm Calm - N/A   Overcast
1:53 AM 30.9 °F - 30.0 °F 96% 30.00 in 2.5 mi Calm Calm - N/A   Overcast
2:05 AM 30.2 °F - 30.2 °F 100% 29.99 in 3.0 mi Calm Calm - N/A   Overcast
2:53 AM 30.9 °F - 30.0 °F 96% 30.01 in 3.0 mi Calm Calm - N/A   Overcast
3:11 AM 30.2 °F - 28.4 °F 93% 30.00 in 2.5 mi Calm Calm - N/A   Overcast
3:42 AM 30.2 °F - 30.2 °F 100% 30.01 in 3.0 mi Calm Calm - N/A   Overcast
3:53 AM 30.9 °F - 30.0 °F 96% 30.02 in 5.0 mi Calm Calm - N/A   Overcast
4:20 AM 30.2 °F - 28.4 °F 93% 30.02 in 10.0 mi Calm Calm - N/A   Overcast
4:53 AM 30.9 °F - 28.9 °F 92% 30.04 in 5.0 mi Calm Calm - N/A   Overcast
5:13 AM 30.2 °F - 30.2 °F 100% 30.03 in 7.0 mi Calm Calm - N/A   Overcast
5:53 AM 30.9 °F - 30.0 °F 96% 30.05 in 7.0 mi Calm Calm - N/A   Overcast
6:53 AM 32.0 °F - 30.0 °F 92% 30.08 in 6.0 mi Calm Calm - N/A   Overcast
7:07 AM 30.2 °F - 30.2 °F 100% 30.07 in 4.0 mi Calm Calm - N/A   Overcast
7:53 AM 32.0 °F - 30.9 °F 96% 30.10 in 4.0 mi Calm Calm - N/A   Overcast
8:05 AM 32.0 °F - 30.2 °F 93% 30.09 in 3.0 mi Calm Calm - N/A   Overcast
8:13 AM 32.0 °F - 30.2 °F 93% 30.09 in 2.5 mi Calm Calm - N/A   Overcast
8:23 AM 32.0 °F - 30.2 °F 93% 30.09 in 4.0 mi Calm Calm - N/A   Overcast
8:53 AM 32.0 °F - 30.9 °F 96% 30.11 in 4.0 mi Calm Calm - N/A   Overcast
9:53 AM 33.1 °F - 30.9 °F 92% 30.13 in 5.0 mi Calm Calm - N/A   Overcast
10:13 AM 33.8 °F - 30.2 °F 87% 30.12 in 6.0 mi Calm Calm - N/A   Overcast
10:28 AM 33.8 °F - 30.2 °F 87% 30.12 in 6.0 mi Calm Calm - N/A   Overcast
10:53 AM 33.1 °F 30.0 °F 30.9 °F 92% 30.14 in 6.0 mi ESE 3.5 mph - N/A   Overcast
11:53 AM 33.1 °F 30.0 °F 30.0 °F 89% 30.14 in 6.0 mi ENE 3.5 mph - N/A   Overcast
12:49 PM 33.8 °F - 30.2 °F 87% 30.14 in 3.0 mi Calm Calm - 0.00 in Snow Light Snow
12:50 PM 34.0 °F - 30.9 °F 89% 30.15 in 3.0 mi Calm Calm - 0.00 in Snow Light Snow
1:04 PM 33.8 °F - 30.2 °F 87% 30.13 in 3.0 mi Calm Calm - 0.00 in Snow Light Snow
1:12 PM 33.8 °F - 32.0 °F 93% 30.14 in 3.0 mi Calm Calm - 0.00 in Snow Light Snow
1:37 PM 33.8 °F - 30.2 °F 87% 30.14 in 3.0 mi Calm Calm - 0.00 in Snow Light Snow
1:41 PM 33.8 °F - 32.0 °F 93% 30.14 in 3.0 mi Calm Calm - 0.00 in Snow Light Snow
1:53 PM 34.0 °F - 32.0 °F 92% 30.16 in 3.0 mi Calm Calm - 0.00 in Snow Light Snow
2:51 PM 33.8 °F - 30.2 °F 87% 30.16 in 3.0 mi Calm Calm - 0.00 in Snow Light Snow
2:53 PM 34.0 °F - 30.9 °F 89% 30.17 in 3.0 mi Calm Calm - 0.00 in Snow Light Snow
3:10 PM 33.8 °F - 30.2 °F 87% 30.16 in 2.5 mi Calm Calm - 0.00 in Snow Light Snow
3:21 PM 33.8 °F - 32.0 °F 93% 30.16 in 3.0 mi Calm Calm - 0.00 in Snow Light Snow
3:32 PM 33.8 °F - 32.0 °F 93% 30.17 in 3.0 mi Calm Calm - 0.00 in Snow Light Snow
3:53 PM 34.0 °F 31.0 °F 30.9 °F 89% 30.18 in 3.0 mi SE 3.5 mph - 0.00 in Snow Light Snow
4:22 PM 33.8 °F 30.8 °F 30.2 °F 87% 30.18 in 4.0 mi SSE 3.5 mph - 0.00 in Snow Light Snow
4:53 PM 33.1 °F - 30.9 °F 92% 30.20 in 4.0 mi Calm Calm - 0.00 in Snow Light Snow
5:25 PM 33.8 °F - 30.2 °F 87% 30.19 in 2.5 mi Calm Calm - 0.00 in Snow Light Snow
5:51 PM 33.8 °F - 32.0 °F 93% 30.19 in 3.0 mi Calm Calm - 0.00 in Snow Light Snow
5:53 PM 33.1 °F - 32.0 °F 96% 30.21 in 3.0 mi Calm Calm - 0.00 in Snow Light Snow
6:21 PM 33.8 °F - 30.2 °F 87% 30.20 in 3.0 mi Calm Calm - 0.00 in Snow Light Snow
6:35 PM 33.8 °F - 30.2 °F 87% 30.20 in 2.5 mi Calm Calm - 0.00 in Snow Light Snow
6:53 PM 33.1 °F - 30.9 °F 92% 30.22 in 2.5 mi Calm Calm - 0.00 in Snow Light Snow
7:07 PM 33.8 °F - 30.2 °F 87% 30.21 in 3.0 mi Calm Calm - 0.00 in   Overcast
7:20 PM 32.0 °F - 30.2 °F 93% 30.21 in 2.5 mi Calm Calm - 0.00 in   Overcast
7:28 PM 32.0 °F - 30.2 °F 93% 30.21 in 4.0 mi Calm Calm - 0.00 in   Overcast
7:43 PM 32.0 °F - 30.2 °F 93% 30.21 in 2.0 mi Calm Calm - 0.00 in   Overcast
7:53 PM 32.0 °F - 30.9 °F 96% 30.23 in 2.5 mi Calm Calm - 0.00 in Snow Light Snow
8:02 PM 32.0 °F - 30.2 °F 93% 30.22 in 3.0 mi Calm Calm - N/A   Overcast
8:39 PM 32.0 °F - 30.2 °F 93% 30.22 in 2.5 mi Calm Calm - N/A   Overcast
8:53 PM 32.0 °F - 30.9 °F 96% 30.23 in 2.5 mi Calm Calm - N/A   Overcast
9:15 PM 32.0 °F - 30.2 °F 93% 30.22 in 3.0 mi Calm Calm - N/A   Overcast
9:30 PM 32.0 °F - 30.2 °F 93% 30.22 in 2.5 mi Calm Calm - N/A   Overcast
9:49 PM 32.0 °F - 30.2 °F 93% 30.22 in 1.8 mi Calm Calm - N/A   Overcast
9:53 PM 32.0 °F - 30.9 °F 96% 30.23 in 2.0 mi Calm Calm - N/A   Overcast
10:05 PM 32.0 °F - 30.2 °F 93% 30.23 in 1.8 mi Calm Calm - N/A   Overcast
10:14 PM 32.0 °F - 30.2 °F 93% 30.23 in 2.5 mi Calm Calm - N/A   Overcast
10:26 PM 32.0 °F - 30.2 °F 93% 30.23 in 2.5 mi Calm Calm - N/A   Overcast
10:35 PM 32.0 °F - 32.0 °F 100% 30.23 in 3.0 mi Calm Calm - N/A   Overcast
10:53 PM 32.0 °F - 30.9 °F 96% 30.24 in 3.0 mi Calm Calm - N/A   Overcast
11:14 PM 32.0 °F - 30.2 °F 93% 30.23 in 3.0 mi Calm Calm - N/A   Overcast
11:40 PM 32.0 °F - 30.2 °F 93% 30.23 in 2.5 mi Calm Calm - N/A   Overcast
11:53 PM 32.0 °F - 30.9 °F 96% 30.25 in 2.0 mi Calm Calm - N/A   Overcast